| time (UTC) | temp C | wind direction | speed KPH | gust KPH | rain 1hr cm | rain 24hr cm | rain mn cm | humidity % | barometer mb |
| 20260902033708 | 98 | 165 | 0.0 | 0.0 | 0.00 | 0.00 | 0.00 | 1018.1 | |
| 20260902032708 | 98 | 165 | 0.0 | 0.0 | 0.00 | 0.00 | 0.00 | 1018.2 | |
| 20260902031708 | 98 | 165 | 0.0 | 0.0 | 0.00 | 0.00 | 0.00 | 1018.2 | |
| 20260902030708 | 98 | 165 | 0.0 | 4.8 | 0.00 | 0.00 | 0.00 | 1018.2 | |
| 20260902025708 | 98 | 91 | 0.0 | 0.0 | 0.00 | 0.00 | 0.00 | 1018.4 | |
| 20260902024707 | 98 | 91 | 0.0 | 4.8 | 0.00 | 0.00 | 0.00 | 1018.4 | |
| 20260902023708 | 98 | 159 | 0.0 | 0.0 | 0.00 | 0.00 | 0.00 | 1018.3 | |
| 20260902021707 | 98 | 52 | 0.0 | 3.2 | 0.00 | 0.00 | 0.00 | 1018.5 | |
| 20260902015737 | 98 | 94 | 1.6 | 3.2 | 0.00 | 0.00 | 0.00 | 1018.8 | |
| 20260902014737 | 98 | 91 | 0.0 | 3.2 | 0.00 | 0.00 | 0.00 | 1018.7 | |
| 20260902013736 | 98 | 53 | 0.0 | 4.8 | 0.00 | 0.00 | 0.00 | 1018.8 | |
| 20260902012736 | 98 | 49 | 0.0 | 3.2 | 0.00 | 0.00 | 0.00 | 1018.8 | |
| 20260902011736 | 98 | 45 | 0.0 | 3.2 | 0.00 | 0.00 | 0.00 | 1018.8 | |
| 20260902010736 | 98 | 82 | 0.0 | 0.0 | 0.00 | 0.00 | 0.00 | 1018.9 | |
| 20260902005736 | 98 | 82 | 0.0 | 1.6 | 0.00 | 0.00 | 0.00 | 1018.8 | |
| 20260902004736 | 98 | 52 | 0.0 | 0.0 | 0.00 | 0.00 | 0.00 | 1018.8 | |
| 20260902003735 | 98 | 52 | 0.0 | 3.2 | 0.00 | 0.00 | 0.00 | 1019.0 | |
| 20260902001735 | 98 | 55 | 0.0 | 0.0 | 0.00 | 0.00 | 0.00 | 1019.1 | |
| 20260901235735 | 98 | 15 | 0.0 | 4.8 | 0.00 | 0.00 | 0.00 | 1019.1 | |
| 20260901234734 | 98 | 104 | 0.0 | 4.8 | 0.00 | 0.00 | 0.00 | 1019.2 | |
| 20260901233734 | 98 | 35 | 3.2 | 3.2 | 0.00 | 0.00 | 0.00 | 1019.2 | |
| 20260901232734 | 98 | 150 | 0.0 | 0.0 | 0.00 | 0.00 | 0.00 | 1019.1 | |
| 20260901231734 | 98 | 150 | 0.0 | 0.0 | 0.00 | 0.00 | 0.00 | 1019.1 | |
| 20260901230734 | 98 | 150 | 0.0 | 0.0 | 0.00 | 0.00 | 0.00 | 1019.2 | |
| 20260901224734 | 98 | 150 | 0.0 | 0.0 | 0.00 | 0.00 | 0.00 | 1019.3 | |
| 20260901223733 | 98 | 150 | 0.0 | 1.6 | 0.00 | 0.00 | 0.00 | 1019.3 | |
| 20260901222733 | 98 | 100 | 0.0 | 0.0 | 0.00 | 0.00 | 0.00 | 1019.4 | |
| 20260901220733 | 98 | 100 | 0.0 | 0.0 | 0.00 | 0.00 | 0.00 | 1019.3 | |
| 20260901215733 | 98 | 100 | 0.0 | 0.0 | 0.00 | 0.00 | 0.00 | 1019.4 | |
| 20260901214733 | 98 | 100 | 0.0 | 0.0 | 0.00 | 0.00 | 0.00 | 1019.4 | |
| 20260901213732 | 98 | 100 | 0.0 | 0.0 | 0.00 | 0.00 | 0.00 | 1019.5 | |
| 20260901212732 | 98 | 100 | 0.0 | 0.0 | 0.00 | 0.00 | 0.00 | 1019.4 | |
| 20260901211732 | 98 | 100 | 0.0 | 0.0 | 0.00 | 0.00 | 0.00 | 1019.5 | |
| 20260901205732 | 98 | 100 | 0.0 | 4.8 | 0.00 | 0.00 | 0.00 | 1019.5 | |
| 20260901204732 | 98 | 20 | 0.0 | 1.6 | 0.00 | 0.00 | 0.00 | 1019.5 | |
| 20260901203732 | 98 | 76 | 0.0 | 4.8 | 0.00 | 0.00 | 0.00 | 1019.5 | |
| 20260901202731 | 98 | 28 | 3.2 | 3.2 | 0.00 | 0.00 | 0.00 | 1019.4 | |
| 20260901201731 | 98 | 77 | 1.6 | 3.2 | 0.00 | 0.00 | 0.00 | 1019.3 | |
| 20260901200732 | 98 | 108 | 0.0 | 4.8 | 0.00 | 0.00 | 0.00 | 1019.4 | |
| 20260901194731 | 98 | 83 | 1.6 | 6.4 | 0.00 | 0.00 | 0.00 | 1019.4 | |
| 20260901192731 | 98 | 110 | 0.0 | 6.4 | 0.00 | 0.00 | 0.00 | 1019.2 | |
| 20260901191731 | 98 | 49 | 0.0 | 6.4 | 0.00 | 0.00 | 0.00 | 1019.1 | |
| 20260901190731 | 98 | 75 | 0.0 | 8.0 | 0.00 | 0.00 | 0.00 | 1018.9 | |
| 20260901185731 | 98 | 132 | 1.6 | 6.4 | 0.00 | 0.00 | 0.00 | 1018.9 | |
| 20260901184730 | 98 | 96 | 0.0 | 6.4 | 0.00 | 0.00 | 0.00 | 1018.9 | |
| 20260901183730 | 98 | 97 | 1.6 | 8.0 | 0.00 | 0.00 | 0.00 | 1019.0 | |
| 20260901180729 | 98 | 79 | 0.0 | 9.7 | 0.00 | 0.00 | 0.00 | 1019.0 | |
| 20260901175729 | 98 | 75 | 4.8 | 12.9 | 0.00 | 0.00 | 0.00 | 1019.0 | |
| 20260901173729 | 98 | 105 | 3.2 | 9.7 | 0.00 | 0.00 | 0.00 | 1019.1 | |
| 20260901172729 | 98 | 91 | 4.8 | 9.7 | 0.00 | 0.00 | 0.00 | 1019.1 | |
| 20260901171729 | 98 | 68 | 1.6 | 11.3 | 0.00 | 0.00 | 0.00 | 1019.0 | |
| 20260901170729 | 98 | 113 | 6.4 | 11.3 | 0.00 | 0.00 | 0.00 | 1019.0 | |
| 20260901165729 | 98 | 98 | 0.0 | 11.3 | 0.00 | 0.00 | 0.00 | 1019.0 | |
| 20260901164729 | 98 | 80 | 0.0 | 9.7 | 0.00 | 0.00 | 0.00 | 1019.0 | |
| 20260901163729 | 98 | 68 | 6.4 | 11.3 | 0.00 | 0.00 | 0.00 | 1019.1 | |
| 20260901161728 | 98 | 97 | 3.2 | 14.5 | 0.00 | 0.00 | 0.00 | 1019.1 | |
| 20260901160728 | 98 | 82 | 4.8 | 12.9 | 0.00 | 0.00 | 0.00 | 1019.1 | |
| 20260901155728 | 98 | 80 | 3.2 | 11.3 | 0.00 | 0.00 | 0.00 | 1019.2 | |
| 20260901154728 | 98 | 105 | 8.0 | 11.3 | 0.00 | 0.00 | 0.00 | 1019.3 | |
| 20260901153727 | 98 | 46 | 4.8 | 14.5 | 0.00 | 0.00 | 0.00 | 1019.2 | |
| 20260901152727 | 98 | 30 | 1.6 | 11.3 | 0.00 | 0.00 | 0.00 | 1019.1 | |
| 20260901151727 | 98 | 122 | 6.4 | 12.9 | 0.00 | 0.00 | 0.00 | 1019.2 | |
| 20260901145727 | 98 | 90 | 6.4 | 11.3 | 0.00 | 0.00 | 0.00 | 1019.4 | |
| 20260901144727 | 98 | 86 | 1.6 | 9.7 | 0.00 | 0.00 | 0.00 | 1019.5 | |
| 20260901143726 | 98 | 176 | 4.8 | 12.9 | 0.00 | 0.00 | 0.00 | 1019.5 | |
| 20260901142727 | 98 | 82 | 1.6 | 11.3 | 0.00 | 0.00 | 0.00 | 1019.5 | |
| 20260901140726 | 98 | 108 | 9.7 | 12.9 | 0.00 | 0.00 | 0.00 | 1019.6 | |
| 20260901135726 | 98 | 105 | 4.8 | 14.5 | 0.00 | 0.00 | 0.00 | 1019.7 | |
| 20260901134726 | 98 | 79 | 4.8 | 14.5 | 0.00 | 0.00 | 0.00 | 1019.8 | |
| 20260901133726 | 98 | 65 | 3.2 | 12.9 | 0.00 | 0.00 | 0.00 | 1019.8 | |
| 20260901132726 | 98 | 15 | 3.2 | 12.9 | 0.00 | 0.00 | 0.00 | 1019.7 | |
| 20260901131725 | 98 | 120 | 4.8 | 11.3 | 0.00 | 0.00 | 0.00 | 1019.8 | |
| 20260901125725 | 98 | 51 | 9.7 | 11.3 | 0.00 | 0.00 | 0.00 | 1019.8 | |
| 20260901124725 | 98 | 145 | 8.0 | 14.5 | 0.00 | 0.00 | 0.00 | 1019.9 | |
| 20260901123725 | 98 | 108 | 0.0 | 11.3 | 0.00 | 0.00 | 0.00 | 1019.8 | |
| 20260901122724 | 98 | 129 | 6.4 | 12.9 | 0.00 | 0.00 | 0.00 | 1019.8 | |
| 20260901121725 | 98 | 260 | 3.2 | 12.9 | 0.00 | 0.00 | 0.00 | 1019.8 | |
| 20260901120724 | 98 | 107 | 1.6 | 8.0 | 0.00 | 0.00 | 0.00 | 1020.0 | |
| 20260901115724 | 98 | 56 | 1.6 | 11.3 | 0.00 | 0.00 | 0.00 | 1020.0 | |
| 20260901114724 | 98 | 62 | 4.8 | 12.9 | 0.00 | 0.00 | 0.00 | 1020.1 | |
| 20260901112724 | 98 | 138 | 1.6 | 8.0 | 0.00 | 0.00 | 0.00 | 1020.1 | |
| 20260901111724 | 98 | 105 | 1.6 | 9.7 | 0.00 | 0.00 | 0.00 | 1020.2 | |
| 20260901110724 | 98 | 18 | 6.4 | 11.3 | 0.00 | 0.00 | 0.00 | 1020.3 | |
| 20260901103723 | 98 | 35 | 3.2 | 9.7 | 0.00 | 0.00 | 0.00 | 1020.5 | |
| 20260901102723 | 98 | 94 | 1.6 | 9.7 | 0.00 | 0.00 | 0.00 | 1020.4 | |
| 20260901101723 | 98 | 80 | 4.8 | 9.7 | 0.00 | 0.00 | 0.00 | 1020.5 | |
| 20260901100723 | 98 | 104 | 0.0 | 9.7 | 0.00 | 0.00 | 0.00 | 1020.6 | |
| 20260901095723 | 98 | 56 | 1.6 | 8.0 | 0.00 | 0.00 | 0.00 | 1020.7 | |
| 20260901094723 | 98 | 59 | 3.2 | 9.7 | 0.00 | 0.00 | 0.00 | 1020.6 | |
| 20260901092722 | 98 | 27 | 0.0 | 0.0 | 0.00 | 0.00 | 0.00 | 1020.7 | |
| 20260901091722 | 98 | 27 | 0.0 | 0.0 | 0.00 | 0.00 | 0.00 | 1020.8 | |
| 20260901085722 | 98 | 27 | 0.0 | 0.0 | 0.00 | 0.00 | 0.00 | 1020.8 | |
| 20260901084722 | 98 | 27 | 0.0 | 0.0 | 0.00 | 0.00 | 0.00 | 1020.9 | |
| 20260901082721 | 98 | 27 | 0.0 | 0.0 | 0.00 | 0.00 | 0.00 | 1020.8 | |
| 20260901081721 | 98 | 27 | 0.0 | 0.0 | 0.00 | 0.00 | 0.00 | 1020.9 | |
| 20260901080721 | 98 | 27 | 0.0 | 0.0 | 0.00 | 0.00 | 0.00 | 1020.8 | |
| 20260901075721 | 98 | 27 | 0.0 | 0.0 | 0.00 | 0.00 | 0.00 | 1020.7 | |
| 20260901074721 | 98 | 27 | 0.0 | 0.0 | 0.00 | 0.00 | 0.00 | 1020.7 | |
| 20260901072720 | 98 | 27 | 0.0 | 0.0 | 0.00 | 0.00 | 0.00 | 1020.6 | |
| 20260901071720 | 98 | 27 | 0.0 | 0.0 | 0.00 | 0.00 | 0.00 | 1020.4 | |
| 20260901070720 | 98 | 27 | 0.0 | 0.0 | 0.00 | 0.00 | 0.00 | 1020.3 | |
| 20260901065720 | 98 | 27 | 0.0 | 0.0 | 0.00 | 0.00 | 0.00 | 1020.2 | |
| 20260901064720 | 98 | 27 | 0.0 | 0.0 | 0.00 | 0.00 | 0.00 | 1020.2 | |
| 20260901063719 | 98 | 27 | 0.0 | 0.0 | 0.00 | 0.00 | 0.00 | 1020.1 | |
| 20260901062720 | 98 | 27 | 0.0 | 0.0 | 0.00 | 0.00 | 0.00 | 1020.0 | |
| 20260901055719 | 98 | 27 | 0.0 | 0.0 | 0.00 | 0.00 | 0.00 | 1019.9 | |
| 20260901054719 | 98 | 27 | 0.0 | 0.0 | 0.00 | 0.00 | 0.00 | 1019.8 | |
| 20260901045718 | 98 | 27 | 0.0 | 0.0 | 0.00 | 0.00 | 0.00 | 1019.4 | |
| 20260901044718 | 98 | 27 | 0.0 | 0.0 | 0.00 | 0.00 | 0.00 | 1019.3 | |
| 20260901043718 | 98 | 27 | 0.0 | 0.0 | 0.00 | 0.00 | 0.00 | 1019.3 | |
| 20260901041717 | 98 | 27 | 0.0 | 0.0 | 0.00 | 0.00 | 0.00 | 1019.3 | |
| 20260901040718 | 98 | 27 | 0.0 | 0.0 | 0.00 | 0.00 | 0.00 | 1019.2 | |
| 20260901034717 | 98 | 27 | 0.0 | 0.0 | 0.00 | 0.00 | 0.00 | 1019.2 |